Weather History for Deming, NM

Change the Weather History Date:

Sunday, October 2, 2011

  Actual Average Record
Temperature  
Mean Temperature 72 °F -  
Max Temperature 84 °F 83 °F 95 °F (2000)
Min Temperature 59 °F 49 °F 36 °F (1961)
Cooling Degree Days 6    
Growing Degree Days 22 (Base 50)    
Moisture  
Dew Point 47 °F    
Average Humidity 47    
Maximum Humidity 87    
Minimum Humidity 25    
Precipitation  
Precipitation 0.38 in - - ()
Sea Level Pressure  
Sea Level Pressure 30.03 in    
Wind  
Wind Speed 9 mph (East)    
Max Wind Speed 23 mph    
Max Gust Speed 29 mph    
Visibility 10 miles    
Events Rain , Thunderstorm    
Averages and records for this station are not official NWS values.
T = Trace of Precipitation, MM = Missing Value Source: NWS Daily Summary

Daily Weather History Graph

Daily Weather History Graph

Search for Another Location

Airport:

Trip Planner

Search our weather history database for the weather conditions in past years. The results will help you decide how hot, cold, wet, or windy it might be!

Date:

Astronomy

Oct. 02, 2011 Rise Set
Actual Time 7:05 AM MDT 6:54 PM MDT
Civil Twilight 6:40 AM MDT 7:19 PM MDT
Nautical Twilight 6:12 AM MDT 7:47 PM MDT
Astronomical Twilight 5:43 AM MDT 8:15 PM MDT
Moon 12:55 PM MDT (10/2) 11:15 PM MDT (10/2)
Length of Visible Light 12h 38m
Length of Day
11h 49m
Waxing Crescent, 35% of the Moon is Illuminated
Oct 2
Waxing Crescent
Oct 3
First Quarter
Oct 11
Full
Oct 19
Last Quarter
Oct 26
New

Hourly Weather History & Observations

Time (MDT) Temp. Dew Point Humidity Pressure Visibility Wind Dir Wind Speed Gust Speed Precip Events Conditions
12:53 AM 68.0 °F 42.1 °F 39% 29.96 in 10.0 mi ENE 9.2 mph - N/A   Overcast
1:53 AM 66.9 °F 43.0 °F 42% 29.96 in 10.0 mi ENE 5.8 mph - N/A   Mostly Cloudy
2:53 AM 64.4 °F 42.8 °F 45% 30.19 in 10.0 mi ENE 6.9 mph - N/A   Clear
3:53 AM 62.6 °F 42.8 °F 48% 30.19 in 10.0 mi ENE 8.1 mph - N/A   Clear
4:53 AM 62.1 °F 42.1 °F 48% 29.99 in 10.0 mi NE 8.1 mph - N/A   Partly Cloudy
5:53 AM 60.1 °F 41.0 °F 49% 30.00 in 10.0 mi ENE 5.8 mph - N/A   Clear
6:53 AM 59.0 °F 41.0 °F 51% 30.02 in 10.0 mi ENE 6.9 mph - N/A   Clear
7:53 AM 61.0 °F 41.0 °F 48% 30.04 in 10.0 mi ENE 8.1 mph - N/A   Clear
8:53 AM 68.0 °F 43.0 °F 40% 30.04 in 10.0 mi ENE 11.5 mph - N/A   Clear
9:53 AM 71.6 °F 44.6 °F 38% 30.23 in 10.0 mi East 10.4 mph - N/A   Mostly Cloudy
10:53 AM 77.0 °F 45.0 °F 32% 30.03 in 10.0 mi ESE 12.7 mph - N/A   Clear
11:53 AM 81.0 °F 45.0 °F 28% 30.01 in 10.0 mi Variable 5.8 mph - N/A   Clear
12:53 PM 81.0 °F 45.0 °F 28% 29.97 in 10.0 mi Variable 5.8 mph - N/A   Clear
1:53 PM 82.9 °F 45.0 °F 26% 29.93 in 10.0 mi East 10.4 mph 17.3 mph N/A   Clear
2:53 PM 82.9 °F 45.0 °F 26% 29.90 in 10.0 mi Variable 4.6 mph - N/A   Clear
3:53 PM 84.0 °F 44.1 °F 25% 29.90 in 10.0 mi South 5.8 mph - N/A   Scattered Clouds
4:53 PM 84.0 °F 44.1 °F 25% 29.88 in 10.0 mi SSW 9.2 mph - N/A   Mostly Cloudy
5:53 PM 82.0 °F 43.0 °F 25% 29.90 in 10.0 mi South 5.8 mph - N/A   Clear
6:44 PM 80.6 °F 46.4 °F 30% 30.11 in 10.0 mi SSW 6.9 mph - N/A Thunderstorm Clear
6:53 PM 79.0 °F 46.0 °F 31% 29.92 in 10.0 mi SSW 6.9 mph - N/A Thunderstorm Clear
7:53 PM 64.9 °F 55.0 °F 70% 30.01 in 4.0 mi SW 15.0 mph 20.7 mph 0.13 in Rain , Thunderstorm Thunderstorms and Rain
8:09 PM 64.4 °F 57.2 °F 77% 30.18 in - WNW 11.5 mph - 0.11 in Rain , Thunderstorm Heavy Thunderstorms and Rain
8:53 PM 64.9 °F 55.9 °F 73% 30.01 in 8.0 mi Variable 6.9 mph 26.5 mph 0.19 in Rain , Thunderstorm Light Rain
9:09 PM 64.4 °F 57.2 °F 77% 30.20 in 10.0 mi NNE 23.0 mph 28.8 mph 0.00 in Rain Light Rain
9:53 PM 63.0 °F 55.9 °F 78% 30.04 in 10.0 mi NNE 15.0 mph - 0.02 in   Overcast
10:53 PM 62.1 °F 55.9 °F 80% 30.07 in 8.0 mi ENE 8.1 mph - 0.02 in Rain Rain
11:53 PM 61.0 °F 57.0 °F 87% 30.06 in 10.0 mi ENE 8.1 mph - 0.02 in   Overcast